Tracking 31027 objects as of 19-Jul-2025
HD Live streaming from Space Station
objects crossing your sky now

DMSP 5D-2 F13 DEB

Track DMSP 5D-2 F13 DEB now!
10-day predictions


NORAD ID: 42267
Int'l Code: 1995-015GH
Perigee: 784.3 km
Apogee: 908.9 km
Inclination: 98.7 °
Period: 101.7 minutes
Semi major axis: 7217 km
RCS: Unknown
Launch date: March 24, 1995
Source: United States (US)
Launch site: AIR FORCE WESTERN TEST RANGE (AFWTR)

Note: This is SATELLITE DEBRIS
Your satellite tracking list
FLOCK 4V 13
Track 1 satellite(s)




NASA's NSSDC Master Catalog

Two Line Element Set (TLE):
1 42267U 95015GH  25197.92078244  .00003585  00000-0  17791-2 0  9999
2 42267  98.7394  84.7452 0086270  87.3427 273.7619 14.15836498523360
Source of the keplerian elements: AFSPC